Wind_Speed
30 29 29 28 28 28 28 28 27 26 25 24 24 23 22 21 20 19 18 17 17 17 17 18 20 21 21 21 21 21 21 20 18 17 16 15 15 14 14 14 14 14 14 13 12 12 11 9 11 13 14 15 17 18 20 20 20 20 21 22 22 23 24 24 24 24 25 25 22 21 20 18 18 18 18 21 22 19 18 17 18 18 20 20 20
31 29 29 28 27 27 27 28 26 26 25 24 23 22 21 20 19 18 18 17 17 16 17 17 19 21 22 21 21 21 20 20 19 18 17 16 16 15 14 14 14 14 14 13 12 12 11 9 13 17 17 17 19 20 20 20 20 20 21 21 21 21 22 23 23 24 25 26 24 21 21 21 19 18 19 21 21 19 18 16 17 18 19 20 20
30 29 28 27 27 27 27 27 26 25 25 24 22 22 21 20 19 18 17 16 16 16 16 17 19 21 22 22 21 21 20 20 19 18 17 16 15 15 14 14 13 13 13 13 12 12 11 11 17 20 18 19 20 20 21 20 21 21 20 20 20 20 21 22 22 23 24 25 25 21 20 22 19 18 18 20 19 19 18 16 16 17 18 19 20
27 29 29 28 27 27 27 26 26 25 24 23 22 21 20 19 18 17 16 16 16 15 15 17 19 20 21 22 21 21 20 19 18 17 16 15 15 15 14 14 13 12 13 13 12 12 12 14 18 19 18 20 20 21 21 21 21 21 20 20 20 19 19 20 21 22 23 25 25 22 19 21 20 17 17 17 17 18 18 16 15 16 17 18 18
26 29 29 29 27 27 27 26 26 25 24 23 22 20 20 19 18 17 16 15 15 14 14 16 18 19 20 21 21 20 19 18 16 15 15 14 14 14 13 12 11 11 12 12 12 12 13 15 17 18 18 20 19 20 21 21 21 21 20 20 20 18 16 17 18 20 22 23 24 23 19 19 21 17 16 16 16 17 17 15 14 15 16 16 16
26 28 29 29 28 27 26 26 25 25 24 22 21 20 19 19 18 17 15 15 15 13 14 15 17 18 19 19 19 19 19 17 15 14 13 13 12 11 11 11 10 10 11 12 12 12 14 16 17 18 18 19 19 20 20 21 21 21 20 20 19 17 15 14 15 17 20 21 21 23 19 17 20 18 16 15 14 15 15 13 14 15 15 15 14
26 27 28 29 28 27 26 25 24 24 23 22 21 20 19 19 18 17 15 16 14 13 13 14 16 17 18 18 18 18 18 17 15 13 12 12 12 11 10 10 9 9 9 11 12 12 14 16 17 18 18 18 19 19 20 21 21 21 20 18 17 15 14 13 14 14 16 19 19 21 19 15 19 19 16 15 14 14 14 11 12 14 13 13 12
26 27 28 29 28 27 25 25 24 23 22 21 20 19 19 18 18 16 15 15 14 13 13 13 14 16 17 17 17 17 17 16 16 15 13 12 12 11 10 9 9 8 8 10 11 12 14 16 16 17 18 18 18 19 20 21 21 20 18 17 15 13 12 13 15 15 16 18 18 19 18 15 16 18 16 15 15 14 14 11 11 13 12 11 9
27 28 28 29 28 26 25 24 24 23 22 21 20 19 19 18 18 16 15 15 13 12 13 13 13 15 16 15 16 16 15 15 15 16 15 13 12 11 10 9 8 8 8 9 10 11 14 15 15 16 17 18 18 19 20 20 20 19 17 15 12 11 11 13 15 16 17 18 17 17 18 14 13 17 17 16 16 15 14 11 11 12 11 9 7
28 29 28 28 28 26 25 24 24 23 22 21 20 19 18 18 18 16 15 15 13 12 13 13 13 13 14 14 15 15 15 14 13 15 15 13 12 11 10 9 8 8 8 9 10 11 13 14 14 16 17 18 18 18 19 20 20 19 16 13 10 9 10 13 15 16 17 17 16 17 18 12 11 15 17 16 16 16 15 14 13 12 10 8 7
29 29 29 28 27 26 25 24 23 22 22 21 20 19 18 18 18 16 14 14 12 11 12 12 12 12 13 13 14 14 14 13 12 12 12 12 11 11 10 9 8 8 8 8 9 10 13 14 15 16 17 18 18 18 19 20 20 19 16 12 8 6 10 12 14 15 16 16 15 17 18 12 10 13 15 15 16 17 16 16 15 13 12 10 8
30 29 29 28 27 26 25 23 22 22 21 21 20 19 18 18 17 15 14 13 12 11 12 12 12 12 12 12 12 13 13 12 12 11 11 11 11 11 10 10 9 8 8 8 9 10 12 14 15 16 17 17 19 19 19 20 20 19 15 11 6 5 8 10 12 14 14 14 14 16 17 12 10 12 14 15 16 16 17 17 16 15 14 12 11
30 29 28 27 27 25 24 22 22 22 21 20 19 19 18 18 17 15 13 13 12 11 12 12 11 11 11 12 12 12 13 13 12 12 11 11 11 11 10 9 9 8 7 7 8 9 10 13 15 16 17 18 18 19 19 20 20 18 15 11 6 4 7 9 10 12 12 12 13 15 16 12 10 12 12 13 15 16 16 17 16 16 16 15 14
30 29 28 27 26 25 23 22 21 21 21 20 20 19 19 18 17 15 13 12 12 12 12 11 11 11 11 11 12 12 13 13 13 12 11 11 10 10 10 10 9 8 7 7 7 8 9 11 14 15 17 18 18 18 18 19 19 18 15 10 5 3 6 7 9 10 10 11 12 14 16 13 11 11 12 12 13 14 15 16 16 16 17 17 17
29 29 28 27 26 25 24 22 21 21 21 20 20 19 19 18 17 15 13 12 12 12 12 10 10 11 11 11 11 12 13 14 14 12 12 11 10 10 9 10 10 9 8 8 7 7 8 10 12 14 16 17 17 17 18 18 18 18 15 11 4 2 4 6 9 9 9 10 10 12 15 14 11 11 11 12 12 13 14 15 16 16 16 16 16
28 28 28 27 26 26 24 23 22 21 21 21 20 20 19 18 16 15 13 12 12 12 11 11 11 11 11 11 11 12 13 13 14 13 12 12 11 10 9 9 10 9 9 8 7 7 8 9 11 14 15 16 17 17 17 17 17 17 16 10 5 2 2 5 8 7 7 8 9 11 14 13 12 9 10 11 11 11 13 14 14 15 15 15 15
27 27 27 27 27 26 25 24 23 22 21 21 21 20 20 18 17 15 12 12 13 13 12 12 11 12 12 12 11 12 12 12 12 12 12 11 10 10 10 10 10 10 9 8 8 7 7 7 9 11 13 15 16 17 17 17 17 17 16 10 5 3 3 5 6 6 6 7 9 11 12 12 11 10 8 9 10 11 11 12 13 14 14 14 14
26 26 26 26 27 26 26 25 24 23 23 22 21 21 20 18 17 15 12 12 14 13 13 13 12 12 12 12 12 12 11 11 11 11 11 11 11 10 10 10 10 10 9 9 8 7 7 6 7 8 10 12 14 15 16 17 17 16 16 11 6 4 4 5 5 5 5 6 9 10 10 10 11 10 8 7 9 9 10 10 11 12 12 13 13
26 26 26 26 26 26 26 25 25 24 24 22 21 21 20 18 17 15 13 13 14 13 12 13 13 13 13 13 13 12 11 10 10 10 11 11 11 11 10 10 10 9 9 9 8 7 7 6 6 6 6 8 11 13 14 16 15 16 16 13 8 4 4 5 4 4 4 6 9 9 10 10 10 9 8 6 6 8 9 9 10 10 11 11 12
25 27 26 26 26 25 25 25 25 24 24 23 22 21 20 18 17 15 14 14 13 13 13 12 13 13 13 12 12 12 12 11 10 10 10 11 11 11 11 10 9 9 9 8 8 8 8 7 7 7 6 7 9 11 12 13 15 16 17 14 9 4 3 3 3 3 4 5 8 9 9 10 10 9 8 6 5 6 7 8 9 9 10 10 10
26 28 26 27 26 25 25 24 25 24 24 23 22 21 20 19 17 16 15 14 14 13 13 13 14 14 13 12 11 10 11 12 11 10 10 11 11 11 10 9 9 8 8 8 8 8 8 7 7 7 7 7 8 10 11 13 15 18 18 14 9 5 3 3 4 4 3 5 7 9 8 9 9 9 8 6 4 4 5 6 7 8 9 9 9
27 29 27 27 25 25 24 24 24 23 24 23 23 22 20 19 18 16 15 15 15 14 14 14 15 15 14 12 11 10 10 10 10 10 10 10 10 10 9 9 8 8 7 7 7 7 7 7 7 7 7 8 9 10 11 13 16 18 18 14 8 4 4 4 5 4 3 4 6 7 7 8 9 8 7 6 4 3 3 4 5 6 7 8 8
26 29 27 26 24 24 25 24 24 24 24 23 23 22 20 19 17 17 16 16 15 15 14 14 17 16 14 14 12 11 10 10 9 9 8 9 10 10 9 8 7 7 6 6 6 6 6 6 7 8 9 10 10 10 11 12 16 19 19 15 8 4 3 4 4 3 3 4 4 6 7 9 9 8 7 5 4 3 2 2 3 4 6 7 7
24 26 26 25 23 24 25 24 25 24 24 22 21 21 21 19 18 18 17 16 15 15 14 14 18 17 15 15 13 12 11 10 9 9 9 8 9 9 8 7 6 6 5 6 6 5 5 5 6 8 9 10 10 11 11 11 13 17 19 15 8 6 4 4 2 2 2 4 5 6 7 8 8 8 7 5 4 3 2 2 2 3 5 6 7
23 23 24 25 24 24 25 25 25 24 23 22 23 21 20 20 18 18 18 17 16 16 14 15 17 15 15 15 14 12 12 10 8 9 8 8 8 8 8 8 7 6 6 5 5 5 5 6 7 8 9 10 10 11 11 11 12 16 18 15 9 7 5 4 2 0 1 4 5 6 6 7 7 7 7 6 5 4 3 1 3 4 4 5 6
23 24 25 25 25 24 24 25 24 24 24 24 24 22 21 20 17 17 19 19 17 16 16 17 15 14 15 14 13 12 11 10 8 8 8 8 7 7 8 7 7 6 6 6 5 5 5 6 7 8 8 9 10 11 11 10 12 15 17 14 10 8 5 3 3 1 2 4 5 5 5 6 6 7 7 7 5 4 3 1 3 4 5 6 6
25 25 24 24 24 23 23 24 24 24 24 24 24 23 21 18 17 18 19 18 17 17 17 17 16 15 14 13 12 11 10 8 8 9 8 8 7 7 6 5 6 6 6 6 6 6 6 6 6 7 7 8 8 8 10 10 11 13 15 12 9 8 5 1 3 3 3 4 4 4 4 5 5 6 6 6 5 4 3 1 2 5 6 6 6
24 21 19 21 22 21 22 23 24 24 23 22 22 21 19 16 18 19 18 18 18 17 17 17 16 15 14 12 12 10 9 8 8 9 8 7 6 5 4 4 4 4 5 6 7 6 6 6 5 6 6 7 8 6 8 8 9 11 11 10 8 7 6 4 6 7 7 7 8 7 5 3 3 4 4 5 5 3 2 2 1 3 7 7 7
21 16 15 19 21 20 22 23 23 23 21 21 21 19 17 16 19 19 19 19 18 17 18 17 16 15 13 12 11 10 9 8 9 9 8 6 6 5 4 4 4 4 4 4 6 6 5 5 4 4 4 5 6 6 7 6 8 9 7 7 7 7 7 7 9 9 9 9 9 7 4 2 2 2 3 3 3 3 3 2 1 1 5 7 7
17 15 16 19 19 18 21 23 23 22 21 22 21 18 17 18 19 20 20 19 18 19 18 18 16 14 13 12 10 10 10 9 9 8 7 6 6 5 4 3 4 4 3 3 4 4 4 4 3 2 2 4 5 5 6 6 7 8 6 6 7 8 8 8 9 8 7 6 7 6 5 4 3 2 1 2 3 3 3 3 2 0 3 6 6
13 14 17 18 19 18 19 22 23 22 22 22 19 17 18 20 21 21 20 19 20 20 19 18 16 14 13 12 11 11 10 10 9 8 7 6 5 5 4 4 4 4 4 3 4 4 3 2 2 2 1 3 5 4 4 5 7 6 5 6 7 9 9 8 8 6 3 2 5 7 7 6 4 2 1 0 2 2 2 3 2 1 2 5 6
13 16 18 20 19 17 19 21 22 22 21 21 18 17 19 20 21 21 20 20 20 19 18 17 16 15 14 12 12 11 11 10 9 8 7 6 6 5 5 6 5 5 4 5 5 5 3 2 2 1 1 1 3 2 1 4 8 6 4 5 6 8 9 8 7 6 2 2 5 7 8 7 5 3 2 1 1 1 2 2 1 0 1 3 5
15 18 20 19 17 16 18 20 21 21 20 20 19 19 20 21 22 21 20 20 18 18 17 16 17 16 14 13 12 12 11 10 9 8 7 7 7 6 7 7 6 5 5 5 6 5 4 4 3 2 2 1 1 2 1 3 7 6 5 5 5 7 9 8 7 6 4 4 6 8 9 7 5 3 1 1 1 0 1 1 1 1 2 3 4
15 19 20 18 16 17 19 21 22 21 20 20 20 21 22 23 23 21 19 19 17 17 16 16 16 16 15 13 12 11 11 10 9 8 7 7 7 7 7 6 5 5 6 6 6 6 6 4 4 3 2 1 1 2 1 2 4 5 6 6 5 7 9 8 7 5 5 5 5 8 9 6 5 4 3 3 2 1 0 0 1 2 3 5 4
16 19 19 17 17 18 20 23 23 22 22 21 21 22 23 23 22 20 18 18 17 16 16 16 16 16 15 12 11 10 9 9 9 8 8 7 7 7 6 5 5 6 7 6 6 7 7 5 4 3 2 2 2 3 3 2 2 4 5 6 6 6 7 6 5 5 5 5 5 7 8 7 6 5 5 4 3 2 1 1 1 2 3 4 4
19 20 19 18 18 19 21 25 25 24 23 22 22 22 22 22 21 19 18 17 16 17 17 15 15 15 12 10 10 9 9 9 8 8 8 6 6 6 5 6 6 6 6 5 5 5 5 4 4 3 2 2 3 3 4 3 3 4 4 5 5 4 4 4 5 5 5 5 5 7 8 7 7 7 6 5 4 3 1 1 1 2 2 2 4
21 20 20 20 20 21 23 26 27 26 24 23 24 23 23 22 20 18 16 16 16 16 16 14 14 13 11 10 10 8 8 9 8 8 8 7 7 7 6 6 6 5 4 4 4 3 3 4 5 4 4 3 4 4 4 4 4 4 3 3 4 4 4 5 6 7 6 5 5 7 8 7 7 6 6 5 4 3 2 2 1 2 1 2 3
21 19 19 21 21 23 25 27 27 27 26 25 25 24 23 22 20 17 16 16 15 13 14 14 13 13 11 10 9 8 9 9 9 9 8 8 7 6 6 5 4 4 4 3 3 3 4 5 6 6 6 5 5 4 4 4 5 4 3 2 4 4 5 6 7 8 8 5 5 7 8 8 8 7 6 5 4 3 2 2 2 3 2 2 2
22 21 22 23 24 25 27 28 28 27 26 25 24 24 24 22 20 18 18 17 15 14 14 13 13 12 11 10 10 10 11 11 10 9 8 8 7 6 6 5 5 4 4 3 4 4 5 6 6 7 7 6 6 6 4 5 4 4 4 4 5 6 7 7 7 8 7 5 5 7 8 9 9 9 8 7 6 5 4 3 4 5 4 3 4
24 23 25 27 27 29 30 29 28 28 27 25 24 24 24 22 21 20 20 19 17 16 14 13 12 12 12 12 13 13 12 11 9 8 7 7 7 6 6 7 6 6 5 5 6 6 6 6 7 7 8 8 8 7 6 6 4 5 7 7 6 8 8 7 7 8 8 6 6 7 8 9 9 9 9 9 8 7 6 5 6 6 6 5 5
25 24 27 28 29 30 32 31 29 28 28 26 25 26 25 23 23 22 21 20 18 17 16 14 14 13 13 14 14 12 10 9 8 7 8 7 7 7 8 8 8 7 7 7 7 6 7 7 7 8 8 8 8 8 7 7 5 6 10 11 9 8 8 6 6 7 8 7 7 7 8 9 9 9 8 9 9 8 7 7 7 7 6 5 5
27 26 27 28 29 31 32 32 30 29 28 26 25 25 24 22 22 23 21 19 17 17 17 16 15 14 13 12 11 9 8 8 9 9 9 8 8 9 9 9 9 8 8 8 8 7 7 6 6 8 8 8 9 8 8 8 8 7 9 13 11 8 6 6 6 7 7 6 6 6 7 8 9 8 8 9 9 8 8 8 8 7 6 5 5
27 26 27 27 29 32 32 32 31 29 27 24 23 22 21 20 20 20 20 19 17 17 16 15 15 14 12 10 9 9 9 10 9 9 10 10 10 11 11 10 9 9 9 9 9 9 8 6 6 7 8 9 9 10 9 8 9 8 9 11 11 10 8 7 8 8 7 5 5 5 6 8 8 7 7 8 8 8 9 10 10 8 7 7 6
27 27 28 28 30 32 31 31 30 28 26 24 22 20 19 18 17 18 19 19 18 16 14 14 14 13 12 11 10 9 9 9 9 10 11 11 11 11 10 10 10 9 9 9 9 9 8 7 7 7 8 8 9 10 10 9 8 9 11 11 12 12 9 8 9 9 7 7 6 6 5 6 7 7 7 7 7 7 9 10 9 9 9 8 8
27 28 29 29 30 30 30 30 28 26 25 24 22 22 21 21 20 20 20 19 19 16 14 14 12 12 12 12 11 10 9 9 9 9 10 10 10 10 9 9 9 10 9 9 8 9 9 8 8 7 7 7 8 9 10 11 9 9 11 11 11 9 9 11 11 9 8 8 8 7 5 5 5 6 6 7 7 6 7 7 7 7 7 8 9
28 29 29 29 29 29 28 28 27 26 25 24 25 25 25 25 24 24 22 20 19 16 14 13 12 12 12 11 10 9 8 7 6 7 9 9 10 10 9 8 9 9 9 8 7 7 7 7 7 7 6 7 8 8 10 12 11 9 10 11 9 7 11 15 13 10 9 8 8 9 7 6 6 6 6 5 5 3 4 5 4 5 5 5 8
30 30 29 29 29 28 27 28 27 26 27 26 27 27 26 26 26 24 21 19 17 16 12 11 12 13 13 11 9 9 7 5 5 8 11 13 13 12 10 9 9 8 8 7 6 5 4 5 7 7 6 7 8 7 9 12 13 12 10 11 9 7 10 13 12 13 13 10 8 10 9 8 8 8 6 5 3 2 2 3 3 3 3 3 5
30 30 30 30 30 29 28 28 27 27 28 28 28 27 26 26 25 22 19 17 16 16 14 14 15 14 13 12 11 11 9 6 6 10 13 15 14 13 11 10 9 8 8 7 6 5 4 6 8 8 8 8 8 7 8 11 13 13 12 12 10 10 10 9 9 11 15 15 11 11 12 11 9 8 6 4 3 3 2 2 1 1 1 2 2
28 29 31 32 31 30 29 28 28 27 29 29 27 26 24 23 22 20 19 17 16 18 18 18 18 16 14 14 14 13 11 8 7 9 12 13 13 13 12 10 8 8 7 6 5 6 8 9 10 9 10 11 10 9 9 10 11 12 13 13 13 12 10 8 9 10 13 17 14 13 15 14 12 10 8 6 5 4 3 2 2 1 1 1 1
28 29 31 32 31 30 29 29 28 29 30 29 27 25 23 22 20 19 19 18 18 20 20 21 20 19 17 16 14 13 12 9 7 10 12 10 12 13 12 10 8 7 5 5 7 9 11 12 11 11 12 14 15 14 14 13 12 11 10 11 12 12 12 11 12 11 12 15 15 16 16 15 15 14 11 8 8 7 5 4 3 3 3 3 3
29 30 31 32 31 29 29 29 29 31 31 29 26 24 22 21 21 20 18 18 19 21 22 23 21 20 19 17 15 14 12 9 9 12 13 10 11 13 11 9 7 6 7 8 10 12 12 13 13 13 15 16 17 17 17 15 14 13 11 9 9 10 11 11 12 12 13 16 19 20 18 17 17 16 14 12 11 10 8 7 6 5 5 5 5
Wind_Direction
163 159 159 158 159 159 157 154 154 154 152 150 144 141 139 136 132 127 123 119 117 114 112 116 127 133 136 136 137 144 153 159 160 161 161 160 156 154 150 145 140 135 130 123 117 113 109 107 111 103 96 100 102 105 105 103 101 97 94 89 86 84 79 71 66 62 59 55 52 55 67 78 84 92 101 110 112 105 100 102 99 88 84 87 90
161 158 161 158 160 159 157 155 154 154 152 149 143 141 139 137 134 129 125 120 118 115 114 117 126 133 135 136 137 139 146 153 156 158 158 156 152 150 146 142 140 136 131 125 120 113 106 101 107 105 104 107 104 104 104 103 101 96 94 90 86 83 77 71 66 61 57 54 50 50 65 79 88 92 100 111 111 108 107 104 99 89 84 86 89
160 157 160 157 161 159 157 156 154 154 152 148 142 141 140 139 137 132 126 122 120 117 117 119 126 133 135 137 138 140 145 150 153 154 154 152 146 140 139 139 140 137 134 127 121 113 105 101 107 108 109 109 106 106 105 103 99 94 92 88 84 81 77 71 66 61 57 54 50 46 61 77 87 90 97 108 109 111 113 109 102 93 87 85 87
160 158 159 158 160 159 158 156 155 154 151 148 143 142 142 142 139 134 128 123 121 119 120 121 126 131 134 137 139 141 144 148 149 150 149 148 139 132 134 136 136 135 135 130 121 113 105 102 107 108 108 109 108 107 104 100 96 92 89 84 78 77 76 70 64 61 57 52 49 46 54 74 84 89 92 101 107 113 118 115 110 103 94 87 87
160 159 158 158 160 159 159 157 156 154 151 147 144 144 144 144 141 135 128 125 123 123 124 124 126 129 132 135 138 140 140 143 145 147 147 145 139 134 132 129 128 129 133 131 123 115 108 105 107 108 110 112 110 107 102 98 94 90 86 81 76 75 77 72 65 60 55 48 46 44 46 67 81 88 91 98 106 114 121 121 123 118 105 95 92
162 160 159 158 159 160 159 157 156 153 151 148 145 146 146 145 142 136 130 128 127 126 127 128 128 130 131 132 136 138 137 138 139 143 144 143 142 138 131 124 126 128 132 134 128 118 110 109 110 111 113 113 111 107 103 100 96 93 88 84 80 79 80 75 68 60 51 44 41 38 37 59 75 82 88 96 107 116 118 120 137 134 118 110 106
164 161 159 159 159 160 160 158 155 153 151 149 147 148 148 146 142 138 134 133 132 129 130 131 132 132 132 132 134 136 136 135 135 137 140 143 143 142 134 126 127 130 133 134 131 123 112 111 114 113 114 113 112 110 106 104 99 96 92 89 86 84 83 77 70 61 50 43 38 33 32 51 71 77 82 89 100 113 110 112 142 145 133 127 122
164 161 160 159 159 159 159 157 154 153 151 150 149 149 148 146 144 141 138 139 136 133 134 135 135 134 135 135 135 136 137 136 135 133 135 141 143 142 137 132 133 136 137 136 135 128 116 113 116 114 115 114 114 113 110 107 102 99 96 94 92 91 87 76 68 61 54 45 38 30 28 44 65 76 80 82 91 103 106 110 138 151 149 140 133
165 161 160 158 159 159 158 156 153 153 152 151 151 149 149 146 147 144 142 144 140 137 138 138 137 136 136 138 139 139 138 138 137 133 133 137 136 136 136 136 138 140 139 140 140 132 121 117 118 116 115 115 116 115 112 108 104 102 99 98 99 98 87 76 71 62 55 45 36 27 26 39 55 72 78 78 84 92 102 109 123 140 148 147 145
165 160 159 158 157 158 156 154 153 154 153 153 152 150 149 149 150 148 147 147 145 142 141 142 140 138 138 141 144 142 139 140 139 136 134 133 131 132 134 134 135 140 143 143 141 136 127 122 121 119 118 118 117 117 114 110 107 106 102 101 103 100 85 76 71 62 54 43 35 27 28 43 53 66 76 77 79 82 88 94 102 115 124 136 145
162 159 158 157 156 155 154 153 154 154 154 154 153 151 151 152 154 151 150 151 149 146 145 143 141 140 142 146 147 144 139 140 141 139 136 131 131 131 130 127 128 134 139 142 140 139 133 129 126 122 122 121 120 119 116 112 110 108 105 103 106 97 81 74 68 61 52 41 33 27 31 50 56 62 75 79 82 81 82 84 87 94 99 105 109
160 158 157 156 154 153 153 152 153 155 155 155 153 153 153 156 157 154 152 153 152 149 148 145 142 142 144 147 148 145 140 139 141 139 137 133 131 129 125 122 124 125 129 135 136 141 137 134 133 128 126 125 124 122 119 116 114 113 111 110 116 99 78 72 69 61 51 39 29 27 34 52 56 58 69 75 81 81 82 83 82 83 85 87 87
159 157 156 154 152 151 152 151 154 156 156 154 154 155 157 160 158 157 154 154 157 155 152 146 143 143 146 148 149 147 141 139 138 135 134 132 128 123 121 122 122 123 126 129 131 140 140 137 140 136 132 131 129 125 123 121 120 120 118 115 123 107 84 78 72 63 52 36 25 29 37 52 58 57 64 69 76 79 81 83 82 81 80 79 78
157 156 155 153 150 149 151 152 156 157 156 156 157 158 159 162 160 159 157 158 162 159 153 147 146 146 148 147 146 146 141 137 133 131 132 130 126 122 124 125 123 124 127 129 131 138 145 143 144 144 140 138 134 130 128 128 126 125 121 113 115 105 96 95 80 66 53 32 27 35 38 49 58 55 60 65 71 76 81 83 83 82 80 79 77
157 155 154 152 150 149 152 155 157 157 158 158 159 160 162 163 161 161 162 163 164 159 153 149 148 146 145 144 144 143 140 136 132 134 136 134 132 129 128 126 124 122 123 130 134 137 149 154 153 153 148 144 140 137 135 133 131 131 126 113 117 132 108 100 82 70 53 30 29 33 30 43 55 51 56 60 66 72 79 82 82 82 81 82 80
159 157 155 153 150 151 156 157 157 158 158 161 163 163 165 164 161 164 167 167 163 158 153 151 150 147 144 141 139 138 137 136 135 138 139 138 134 128 122 119 120 118 119 125 132 138 151 162 162 162 158 153 146 142 141 140 137 135 129 118 133 169 94 86 78 74 55 30 24 19 20 37 50 55 59 58 63 69 77 82 84 86 85 85 83
162 160 157 153 153 155 157 157 158 160 162 165 166 165 165 163 162 168 169 165 163 160 156 153 154 151 145 139 135 133 137 138 138 140 138 134 127 121 116 113 111 111 114 116 119 124 137 153 162 169 169 164 155 147 145 145 143 139 133 129 142 152 102 90 83 79 63 33 17 9 14 33 50 60 62 57 64 70 75 83 87 88 87 87 85
165 162 159 156 156 158 158 158 160 164 167 167 165 166 165 162 165 170 171 169 167 164 158 155 159 155 149 144 139 135 137 140 139 138 134 130 124 119 116 113 110 109 111 112 114 116 123 135 144 161 172 174 167 155 149 149 148 144 140 139 141 141 132 115 95 82 64 34 15 5 10 31 50 60 59 54 61 70 74 80 85 88 88 89 88
168 164 161 161 160 161 161 161 165 168 171 168 166 167 164 165 169 169 173 177 171 164 160 160 163 160 154 149 144 141 139 139 139 138 133 129 126 123 118 114 112 110 110 111 114 115 115 118 119 131 152 169 171 163 156 155 155 152 148 145 141 149 153 136 114 85 57 25 13 8 13 29 45 55 57 54 56 67 74 80 85 88 90 91 92
167 168 164 166 164 163 164 165 170 171 173 170 168 167 166 172 173 171 175 178 172 164 164 164 167 166 161 153 150 148 143 141 139 138 133 130 128 124 122 118 116 112 111 112 110 107 103 105 107 114 123 136 153 159 157 158 160 157 153 149 148 168 166 138 130 99 55 16 8 6 13 26 37 43 48 53 58 67 74 81 86 90 92 93 94
166 170 168 169 167 166 167 169 173 174 175 171 168 168 170 177 176 177 179 177 172 168 171 168 170 172 168 161 158 157 152 146 141 140 136 132 130 126 126 124 121 118 116 112 105 100 96 96 98 102 109 120 134 143 145 149 157 159 156 150 151 176 168 124 129 114 56 12 360 355 4 15 22 30 36 45 60 76 80 82 87 92 94 96 98
166 170 171 172 169 169 171 173 177 176 178 175 170 169 174 179 180 182 180 177 175 172 176 175 175 176 172 168 166 168 163 152 147 145 141 136 133 131 130 130 128 128 123 110 100 97 99 102 105 110 119 128 132 135 140 143 155 162 158 150 143 157 161 134 120 102 34 1 353 350 357 359 3 15 21 33 55 79 92 87 93 99 98 101 104
166 171 173 174 173 173 174 177 181 182 181 178 173 172 176 180 184 186 181 179 179 176 179 179 180 180 175 172 172 176 171 161 157 152 147 144 141 138 135 134 134 132 125 113 106 104 108 120 127 135 137 142 142 138 140 143 154 164 163 159 146 131 151 150 118 83 21 351 342 344 348 348 353 360 5 25 44 61 99 108 106 113 112 109 110
164 171 174 175 178 178 178 181 185 188 185 178 176 178 180 182 186 187 182 179 178 178 180 181 182 181 178 176 178 180 177 171 167 159 155 151 145 142 139 139 142 140 136 124 119 118 121 131 140 150 151 155 154 142 138 143 154 164 168 169 159 143 163 178 139 84 15 343 326 331 339 346 350 351 356 15 28 34 66 139 157 140 133 126 121
163 171 176 177 180 182 183 184 189 191 186 183 183 185 187 186 186 185 182 179 178 180 180 182 182 181 181 181 182 183 179 176 173 168 162 156 149 146 145 147 154 158 155 145 140 141 140 144 148 154 158 165 164 152 144 145 152 160 169 174 169 156 165 194 192 126 314 314 315 324 334 340 345 347 352 2 13 13 19 134 178 171 160 151 137
168 172 177 180 182 185 187 188 192 193 190 190 189 190 192 190 190 186 180 179 180 181 182 181 182 184 186 186 186 185 182 180 181 182 174 162 156 153 153 157 166 172 170 167 167 168 167 160 154 155 162 170 170 166 159 150 148 155 166 172 175 166 154 195 223 251 278 293 306 319 329 333 340 349 353 354 3 5 1 44 182 191 182 173 161
172 172 176 181 183 188 192 192 194 196 194 194 193 191 191 191 192 186 179 178 178 181 186 184 184 189 189 187 187 187 188 189 189 191 185 172 164 161 166 176 179 181 180 178 181 185 186 179 168 163 167 174 177 180 174 162 152 157 166 169 172 165 137 154 231 233 243 255 270 277 296 319 335 347 352 351 356 3 1 0 207 203 196 186 178
170 166 171 182 185 188 194 196 196 198 196 194 194 190 189 190 187 182 176 177 178 181 190 189 189 193 189 187 188 191 192 194 197 195 189 177 169 171 182 192 191 195 193 183 183 187 186 188 190 181 175 177 182 183 176 172 169 169 170 168 172 164 146 179 204 205 216 233 247 249 251 277 313 330 342 346 350 358 0 345 304 205 200 194 186
163 161 171 182 185 188 193 198 198 199 197 192 191 190 189 185 181 180 178 179 178 181 191 193 193 193 189 190 190 192 195 199 207 202 193 183 176 185 199 197 194 201 205 189 182 183 179 184 194 191 185 181 187 187 181 188 190 182 171 166 179 175 174 201 210 213 224 237 248 245 233 242 269 294 327 341 351 359 1 352 355 194 196 198 196
155 170 180 183 186 190 190 192 197 199 196 192 192 189 181 176 177 180 181 182 179 180 188 193 194 192 187 190 188 188 197 206 211 207 199 194 187 194 212 211 200 195 200 193 181 175 169 184 197 183 181 190 202 202 187 195 201 194 181 173 184 185 192 209 220 232 240 245 249 254 252 251 246 248 316 347 4 12 7 359 351 288 195 198 202
157 188 185 188 192 188 186 187 195 199 196 195 192 181 174 173 177 180 182 183 182 181 184 190 193 190 185 188 190 190 200 209 208 202 201 201 196 201 215 218 215 204 203 206 196 187 170 189 204 176 154 181 198 207 188 197 208 205 190 185 195 199 204 209 219 236 251 254 253 256 252 247 240 226 222 351 21 34 18 6 2 330 194 191 199
179 189 180 186 188 183 186 188 196 199 195 193 184 174 174 175 177 179 183 185 184 182 183 188 189 185 184 187 193 197 204 208 200 196 199 204 204 210 212 214 224 222 220 222 212 208 211 224 229 227 238 175 183 200 186 196 206 210 193 194 209 212 216 223 228 231 232 262 255 248 241 238 227 210 196 142 59 45 30 17 24 85 168 185 194
182 177 176 180 183 183 185 187 194 197 192 187 177 173 175 173 175 180 184 186 183 182 184 185 185 184 187 191 194 201 208 207 201 198 202 209 211 214 217 219 230 232 226 222 213 213 223 234 249 265 254 220 168 173 117 180 205 225 217 208 224 224 225 234 237 227 226 256 251 238 230 221 204 194 197 153 114 72 23 30 57 131 170 199 214
181 177 179 177 181 178 178 183 187 190 189 185 176 174 175 173 176 179 181 184 181 183 185 185 189 189 189 190 192 201 209 207 203 205 209 215 221 222 220 223 234 229 218 214 212 217 222 231 247 254 233 216 198 192 187 180 216 240 231 226 237 233 228 232 238 225 222 242 237 228 222 203 187 183 187 188 170 180 238 53 38 79 155 201 232
187 177 175 175 179 172 173 177 175 179 184 182 178 175 175 174 173 174 176 179 180 184 186 188 191 188 184 188 194 199 206 206 204 213 217 216 220 220 220 228 233 219 210 211 213 215 218 222 228 226 212 211 209 208 212 221 238 238 234 236 237 234 228 230 233 217 215 229 216 210 209 192 184 185 188 193 183 183 207 168 53 64 125 185 212
178 171 172 174 174 171 172 170 168 173 178 179 177 172 171 170 169 170 172 176 180 183 186 188 187 184 183 189 196 198 202 205 204 210 213 208 208 211 219 230 226 212 206 209 211 212 213 211 207 202 203 210 205 198 201 211 209 212 230 239 231 228 229 222 206 191 195 207 195 195 202 195 188 191 193 190 179 176 182 160 101 89 99 141 171
172 173 172 172 173 173 173 168 166 170 172 174 173 169 169 169 168 170 173 177 179 181 186 187 186 189 191 191 193 199 204 205 201 202 203 201 204 209 218 220 210 204 203 198 201 208 198 183 183 190 199 195 186 183 191 203 201 205 216 224 226 224 220 208 193 191 196 193 184 186 196 202 198 195 194 184 172 175 182 185 172 161 112 99 129
175 175 168 170 174 174 172 168 166 167 168 168 168 168 168 168 169 173 176 176 177 182 188 191 192 193 193 188 189 194 200 202 200 196 191 192 196 197 205 205 191 191 198 191 183 190 183 169 170 187 200 185 163 160 178 200 202 200 189 181 210 211 201 192 186 192 196 186 176 182 191 199 200 197 192 181 173 177 180 196 196 177 159 119 129
177 172 166 169 172 172 172 169 166 166 166 166 167 168 168 170 175 178 179 178 180 184 187 190 189 187 183 179 181 187 192 196 193 186 181 183 179 176 184 186 186 192 195 191 178 182 185 174 170 181 194 184 161 155 174 196 199 185 170 167 185 192 189 183 178 184 189 189 184 185 192 194 194 194 190 184 179 176 175 195 198 182 182 188 193
179 172 168 170 171 171 171 169 168 167 166 166 169 169 169 173 179 181 181 181 180 178 177 176 174 173 173 175 180 183 185 185 179 175 177 174 166 166 173 176 184 193 190 183 179 184 188 181 176 178 188 186 167 163 174 185 185 159 153 157 166 174 175 170 167 174 183 196 191 183 187 188 190 192 193 193 186 181 182 193 193 182 183 186 193
181 175 173 173 174 175 172 170 169 170 169 169 171 172 173 177 180 180 180 178 174 171 167 165 166 169 174 176 175 172 172 171 167 167 170 167 163 167 172 173 176 179 179 178 176 177 180 181 180 180 187 184 169 170 179 183 185 159 148 151 153 157 162 163 166 172 178 186 184 176 180 188 191 193 198 202 196 192 193 194 193 183 177 174 176
184 179 176 175 176 177 176 175 173 173 173 172 175 176 178 180 181 180 177 171 165 164 163 162 164 165 168 168 160 157 161 164 164 164 164 161 159 163 167 166 165 166 168 170 166 164 170 170 168 177 184 177 166 167 174 186 191 174 157 154 148 146 155 160 161 165 164 168 177 179 182 191 195 196 202 207 207 207 202 198 199 196 191 189 186
188 180 177 176 176 176 177 178 175 174 173 174 177 178 179 181 183 179 170 161 158 161 161 159 161 160 159 156 151 155 158 159 159 157 157 155 154 156 157 157 155 154 157 157 154 156 158 153 155 169 176 173 168 165 169 188 193 180 172 162 151 149 151 152 155 159 161 160 167 174 183 193 195 197 202 208 216 217 211 209 209 214 216 208 202
187 178 178 179 175 174 176 178 175 174 174 176 177 175 173 174 176 172 163 159 159 162 161 156 158 162 160 155 154 152 149 152 154 155 159 157 155 155 154 154 153 152 155 155 153 154 153 152 161 167 170 172 174 174 172 180 189 181 175 165 155 155 155 161 161 155 158 158 156 160 173 187 188 192 199 209 222 222 219 221 221 227 232 224 216
186 178 180 181 177 174 176 176 175 174 175 175 173 169 167 166 166 165 164 166 167 169 169 158 153 156 154 152 150 145 146 153 152 157 166 165 163 163 161 157 155 156 160 165 169 167 162 161 166 167 168 171 175 182 176 170 176 184 183 174 165 168 174 171 159 146 149 152 149 153 165 170 167 178 192 202 215 220 222 227 230 232 236 234 226
184 178 182 184 182 179 177 175 173 174 174 172 170 168 168 169 170 171 173 177 176 175 171 160 153 154 153 152 149 144 146 147 142 153 157 152 149 148 152 155 156 160 164 173 181 179 169 160 164 169 166 169 170 175 175 170 172 178 186 191 193 198 186 171 155 139 136 140 145 146 152 156 145 152 169 181 197 215 218 212 218 228 229 231 233
183 181 184 186 186 183 178 175 174 173 172 171 172 172 172 173 174 177 179 181 177 172 171 165 164 165 161 155 151 150 147 132 133 152 146 136 132 131 137 145 149 161 170 179 185 188 178 146 150 162 161 164 164 164 168 169 173 175 181 198 208 206 191 181 169 154 141 137 144 141 140 144 139 141 153 165 180 199 211 202 206 236 248 237 242
185 183 184 185 186 184 180 178 175 174 173 175 176 176 176 175 174 175 174 174 173 172 173 170 167 169 164 158 159 160 161 159 153 158 153 144 138 136 143 147 149 161 171 177 184 195 188 146 139 148 155 156 154 159 162 161 172 178 179 190 191 178 180 189 190 178 156 145 143 139 137 138 136 136 139 149 174 185 201 213 212 243 243 222 235
187 185 183 183 184 185 184 181 178 176 176 178 179 178 180 180 178 175 170 169 170 167 166 165 165 168 167 163 165 166 171 179 169 166 167 155 143 147 154 152 151 160 168 176 177 172 162 146 136 141 148 147 145 150 152 151 165 176 177 182 180 172 173 175 184 189 168 151 146 145 140 134 127 120 119 126 130 133 132 112 80 77 105 131 142
188 187 183 181 184 186 185 183 180 178 179 181 182 181 185 187 184 180 176 173 168 161 161 164 167 171 173 170 169 172 176 183 180 176 178 163 148 157 164 155 153 166 180 184 167 154 150 144 139 141 141 139 140 143 141 139 144 152 163 177 182 178 176 177 179 182 171 155 149 147 141 132 124 117 113 112 106 103 98 89 82 75 75 80 91
190 190 184 182 186 186 186 185 181 179 182 183 183 183 188 191 189 186 186 181 171 164 164 167 171 174 177 177 179 184 187 195 192 176 174 166 157 165 169 161 161 165 167 166 159 154 151 146 145 146 143 140 141 141 138 135 134 134 138 153 175 183 185 185 178 176 174 159 148 143 136 128 121 115 110 103 96 91 87 84 81 77 76 75 78
Height
1502 1504 1506 1507 1508 1509 1510 1510 1511 1512 1514 1515 1516 1517 1518 1520 1520 1521 1522 1522 1522 1523 1524 1524 1525 1525 1526 1527 1528 1529 1530 1532 1533 1534 1535 1536 1537 1538 1538 1539 1539 1539 1540 1540 1541 1541 1541 1541 1541 1542 1542 1542 1542 1542 1542 1542 1542 1542 1541 1541 1541 1540 1540 1540 1539 1539 1538 1538 1537 1536 1535 1534 1535 1535 1535 1536 1537 1538 1538 1539 1539 1538 1538 1537 1537
1501 1504 1506 1508 1509 1510 1511 1511 1512 1513 1515 1516 1517 1518 1519 1520 1521 1522 1522 1523 1524 1524 1525 1525 1525 1526 1527 1528 1529 1530 1531 1532 1534 1535 1536 1537 1537 1538 1539 1539 1540 1540 1541 1541 1542 1542 1542 1542 1543 1543 1543 1543 1544 1544 1543 1543 1543 1543 1542 1542 1542 1541 1541 1540 1540 1540 1539 1539 1538 1538 1536 1536 1536 1536 1537 1538 1538 1539 1539 1540 1540 1540 1540 1539 1539
1501 1504 1506 1508 1509 1510 1511 1512 1513 1514 1515 1516 1518 1519 1520 1521 1521 1522 1523 1524 1524 1525 1526 1526 1526 1527 1527 1528 1529 1530 1532 1533 1534 1535 1536 1537 1537 1538 1539 1540 1540 1541 1541 1542 1543 1543 1543 1543 1544 1544 1545 1545 1545 1545 1544 1544 1544 1544 1543 1543 1543 1542 1542 1541 1541 1541 1540 1540 1540 1540 1538 1537 1537 1538 1539 1539 1540 1540 1541 1541 1541 1541 1541 1541 1541
1501 1503 1506 1508 1509 1511 1512 1513 1514 1515 1516 1517 1518 1519 1520 1521 1522 1523 1524 1525 1525 1526 1526 1527 1527 1528 1528 1529 1530 1531 1532 1533 1534 1535 1536 1537 1537 1538 1539 1540 1541 1542 1542 1543 1544 1544 1544 1544 1545 1545 1546 1546 1546 1546 1546 1546 1545 1545 1544 1544 1544 1543 1543 1543 1543 1542 1542 1541 1541 1541 1540 1539 1539 1539 1540 1540 1541 1541 1542 1542 1542 1543 1543 1543 1542
1501 1503 1505 1507 1509 1511 1512 1513 1514 1515 1516 1517 1519 1520 1521 1522 1523 1524 1524 1525 1526 1526 1527 1527 1528 1528 1529 1529 1530 1531 1532 1534 1535 1535 1536 1537 1538 1539 1539 1540 1541 1542 1543 1544 1544 1545 1545 1545 1545 1546 1546 1546 1547 1547 1547 1547 1547 1546 1546 1545 1545 1545 1544 1544 1544 1544 1543 1543 1543 1543 1543 1541 1540 1541 1541 1541 1542 1542 1543 1543 1543 1544 1544 1544 1544
1501 1503 1505 1507 1509 1511 1513 1514 1515 1515 1517 1518 1519 1520 1521 1522 1523 1524 1525 1526 1526 1527 1527 1528 1528 1529 1530 1530 1531 1531 1533 1534 1535 1536 1537 1537 1538 1539 1540 1541 1542 1543 1543 1544 1545 1545 1546 1546 1546 1547 1547 1548 1548 1548 1548 1548 1548 1547 1547 1546 1546 1546 1546 1546 1545 1545 1545 1544 1545 1544 1544 1543 1542 1542 1543 1542 1543 1543 1544 1544 1544 1544 1545 1544 1544
1502 1503 1506 1507 1509 1512 1513 1514 1515 1516 1517 1518 1519 1521 1522 1523 1524 1525 1526 1526 1527 1527 1528 1529 1529 1530 1530 1531 1531 1532 1533 1534 1535 1536 1537 1538 1538 1539 1540 1541 1542 1543 1544 1545 1545 1546 1547 1547 1547 1548 1548 1549 1549 1549 1549 1549 1549 1549 1549 1548 1547 1547 1547 1547 1546 1546 1546 1546 1546 1546 1546 1545 1544 1543 1544 1544 1543 1544 1545 1546 1545 1546 1545 1545 1545
1502 1504 1506 1508 1510 1512 1514 1515 1516 1517 1518 1519 1520 1521 1523 1524 1525 1526 1526 1527 1527 1528 1528 1529 1530 1530 1531 1532 1532 1533 1533 1534 1535 1536 1537 1538 1538 1540 1541 1542 1542 1543 1544 1545 1546 1547 1548 1548 1549 1549 1549 1550 1550 1550 1550 1550 1550 1550 1550 1549 1549 1548 1548 1548 1548 1548 1548 1548 1548 1548 1548 1547 1546 1545 1545 1545 1544 1545 1545 1546 1546 1546 1546 1546 1546
1503 1504 1507 1509 1511 1513 1515 1516 1517 1518 1518 1519 1521 1522 1523 1524 1526 1526 1527 1527 1528 1528 1529 1530 1530 1531 1532 1532 1533 1533 1534 1535 1535 1536 1537 1538 1539 1540 1541 1542 1542 1543 1544 1545 1546 1548 1549 1549 1550 1550 1550 1551 1551 1551 1551 1551 1551 1551 1551 1551 1550 1549 1549 1549 1549 1549 1549 1549 1549 1549 1549 1548 1548 1546 1546 1546 1545 1545 1546 1546 1546 1547 1547 1547 1547
1503 1505 1507 1509 1511 1513 1515 1516 1517 1518 1519 1520 1521 1523 1524 1525 1526 1527 1528 1528 1529 1529 1530 1530 1531 1532 1532 1533 1533 1534 1535 1536 1536 1537 1537 1538 1539 1540 1541 1542 1543 1544 1545 1546 1546 1548 1549 1550 1550 1551 1551 1551 1552 1552 1552 1552 1553 1553 1552 1552 1551 1550 1550 1550 1550 1550 1550 1550 1551 1551 1550 1550 1550 1548 1547 1547 1547 1546 1546 1546 1547 1547 1548 1548 1548
1503 1505 1508 1510 1512 1514 1515 1517 1517 1518 1519 1520 1521 1523 1524 1525 1527 1528 1528 1529 1530 1530 1531 1531 1532 1533 1533 1533 1534 1535 1536 1537 1537 1538 1538 1539 1540 1541 1542 1542 1543 1544 1545 1546 1547 1548 1549 1550 1551 1552 1552 1552 1553 1553 1553 1553 1554 1554 1554 1553 1552 1551 1551 1552 1552 1552 1551 1552 1552 1552 1551 1551 1551 1550 1549 1549 1548 1548 1547 1547 1548 1548 1548 1548 1548
1504 1506 1508 1511 1512 1514 1516 1517 1518 1519 1519 1521 1522 1523 1525 1526 1527 1528 1529 1530 1530 1531 1531 1532 1533 1533 1534 1534 1535 1536 1537 1538 1538 1539 1539 1539 1540 1541 1542 1543 1543 1544 1545 1546 1547 1548 1549 1550 1551 1552 1553 1553 1553 1554 1554 1554 1555 1555 1555 1554 1553 1552 1552 1553 1553 1553 1553 1553 1554 1553 1553 1552 1552 1551 1550 1550 1549 1549 1549 1549 1549 1549 1548 1548 1548
1504 1507 1509 1511 1513 1515 1517 1518 1518 1519 1520 1521 1523 1524 1525 1526 1528 1529 1529 1530 1531 1531 1532 1533 1534 1534 1534 1535 1536 1536 1538 1538 1539 1539 1540 1540 1541 1542 1543 1543 1544 1544 1545 1546 1548 1548 1549 1551 1551 1552 1553 1554 1554 1554 1555 1555 1556 1556 1556 1555 1554 1553 1554 1554 1554 1554 1554 1555 1555 1555 1554 1554 1553 1553 1552 1552 1551 1551 1550 1550 1550 1550 1549 1549 1549
1504 1507 1510 1512 1514 1516 1517 1518 1519 1519 1521 1522 1523 1524 1526 1527 1528 1529 1530 1531 1531 1532 1533 1534 1534 1535 1535 1536 1537 1537 1538 1539 1539 1540 1540 1541 1541 1542 1543 1544 1544 1545 1545 1546 1548 1548 1549 1550 1551 1552 1553 1554 1554 1555 1555 1555 1556 1556 1557 1556 1554 1554 1554 1555 1555 1555 1556 1556 1557 1556 1556 1555 1555 1554 1554 1553 1553 1552 1552 1551 1551 1551 1551 1551 1551
1505 1508 1510 1512 1514 1516 1517 1518 1519 1520 1521 1522 1523 1525 1526 1527 1529 1530 1530 1531 1531 1532 1533 1534 1535 1535 1536 1537 1538 1538 1539 1539 1540 1541 1541 1541 1542 1543 1543 1544 1544 1545 1546 1547 1547 1548 1549 1550 1551 1552 1553 1554 1555 1555 1555 1556 1556 1557 1557 1557 1555 1554 1555 1556 1556 1557 1557 1558 1558 1558 1557 1557 1556 1556 1555 1555 1555 1554 1554 1553 1553 1553 1552 1552 1552
1507 1508 1510 1512 1514 1515 1516 1518 1519 1520 1521 1522 1523 1525 1526 1527 1529 1530 1530 1531 1532 1533 1534 1535 1535 1536 1537 1538 1538 1539 1540 1540 1541 1541 1541 1542 1542 1543 1544 1544 1545 1545 1546 1547 1547 1548 1549 1549 1550 1551 1553 1554 1555 1555 1556 1556 1557 1557 1558 1557 1556 1555 1556 1557 1557 1558 1558 1559 1559 1559 1559 1558 1557 1557 1557 1556 1556 1556 1555 1555 1554 1554 1554 1554 1553
1507 1509 1511 1512 1514 1515 1516 1517 1519 1520 1521 1522 1524 1525 1526 1527 1528 1529 1530 1531 1532 1533 1534 1535 1535 1536 1537 1538 1539 1540 1540 1541 1541 1541 1542 1542 1543 1544 1544 1545 1545 1546 1546 1547 1547 1548 1549 1549 1550 1551 1552 1553 1554 1555 1556 1557 1557 1557 1558 1558 1557 1556 1557 1557 1558 1559 1559 1560 1560 1560 1560 1559 1558 1558 1558 1557 1557 1557 1557 1556 1556 1556 1555 1555 1555
1507 1509 1511 1512 1513 1514 1516 1517 1518 1519 1521 1522 1524 1525 1526 1527 1528 1529 1530 1531 1532 1533 1534 1535 1535 1536 1537 1538 1539 1540 1540 1541 1542 1542 1543 1543 1543 1544 1545 1545 1546 1546 1546 1547 1548 1548 1549 1549 1550 1551 1551 1553 1554 1555 1556 1557 1557 1558 1558 1558 1557 1557 1557 1558 1559 1559 1560 1560 1561 1561 1561 1560 1559 1559 1559 1558 1558 1558 1558 1557 1557 1557 1557 1556 1556
1507 1509 1511 1512 1513 1514 1516 1517 1518 1519 1520 1522 1524 1525 1527 1528 1529 1529 1530 1531 1533 1534 1535 1535 1536 1537 1538 1539 1539 1540 1540 1541 1542 1543 1543 1544 1544 1545 1545 1546 1546 1547 1547 1547 1548 1549 1549 1550 1551 1551 1551 1552 1553 1555 1556 1557 1557 1558 1558 1558 1558 1557 1557 1559 1559 1560 1561 1561 1562 1562 1561 1561 1560 1560 1560 1559 1559 1559 1559 1558 1558 1558 1558 1557 1557
1507 1509 1511 1512 1513 1514 1516 1517 1518 1519 1520 1522 1524 1525 1527 1528 1528 1529 1530 1532 1533 1535 1535 1536 1536 1537 1538 1539 1540 1540 1541 1541 1542 1543 1544 1544 1544 1545 1546 1546 1547 1547 1548 1548 1549 1549 1550 1551 1551 1551 1552 1552 1553 1554 1556 1557 1557 1558 1559 1558 1558 1557 1558 1559 1560 1561 1561 1562 1562 1562 1562 1561 1561 1561 1560 1560 1559 1559 1559 1559 1559 1559 1559 1558 1558
1506 1509 1510 1512 1513 1515 1516 1517 1518 1519 1520 1522 1524 1526 1527 1528 1528 1529 1531 1532 1534 1535 1535 1536 1537 1537 1538 1539 1540 1541 1541 1542 1543 1544 1544 1545 1545 1545 1546 1547 1547 1548 1548 1548 1549 1550 1551 1552 1552 1552 1553 1553 1553 1554 1555 1556 1557 1558 1559 1559 1558 1558 1559 1560 1561 1562 1562 1563 1563 1563 1563 1562 1562 1561 1561 1561 1560 1560 1560 1560 1560 1560 1560 1559 1559
1505 1508 1510 1512 1513 1515 1516 1517 1518 1519 1521 1522 1524 1526 1527 1528 1528 1529 1531 1533 1534 1535 1536 1536 1537 1537 1539 1539 1540 1541 1541 1542 1543 1544 1544 1545 1545 1546 1546 1547 1548 1548 1549 1549 1550 1551 1552 1552 1552 1553 1553 1553 1553 1554 1555 1556 1557 1558 1559 1559 1559 1559 1559 1560 1561 1562 1563 1563 1564 1564 1564 1563 1563 1562 1562 1561 1561 1560 1560 1560 1560 1560 1560 1560 1560
1505 1507 1510 1512 1514 1515 1516 1517 1518 1519 1520 1522 1524 1525 1527 1528 1529 1530 1532 1533 1534 1536 1536 1536 1537 1538 1539 1539 1540 1541 1542 1543 1543 1544 1544 1545 1545 1546 1547 1547 1548 1549 1549 1550 1551 1551 1552 1552 1552 1552 1552 1553 1553 1554 1555 1556 1556 1557 1558 1559 1559 1560 1560 1560 1561 1562 1563 1563 1564 1564 1564 1564 1563 1563 1562 1562 1561 1561 1561 1561 1561 1561 1561 1560 1560
1505 1507 1509 1512 1514 1515 1516 1517 1517 1519 1520 1522 1524 1525 1526 1528 1529 1530 1532 1533 1534 1536 1536 1536 1537 1538 1539 1539 1540 1541 1542 1543 1543 1543 1544 1545 1546 1546 1547 1547 1548 1549 1550 1550 1551 1551 1552 1552 1552 1552 1552 1553 1554 1555 1555 1556 1556 1557 1558 1558 1558 1560 1560 1560 1561 1562 1563 1563 1564 1564 1565 1564 1564 1563 1563 1563 1562 1561 1561 1561 1561 1561 1561 1561 1561
1504 1507 1510 1512 1514 1515 1515 1516 1517 1518 1520 1522 1523 1524 1525 1527 1529 1530 1531 1533 1534 1535 1536 1536 1537 1538 1539 1539 1541 1541 1542 1543 1543 1543 1544 1545 1545 1546 1546 1547 1548 1549 1550 1551 1551 1552 1552 1552 1552 1553 1553 1553 1554 1555 1556 1556 1556 1556 1557 1558 1558 1559 1560 1561 1561 1562 1562 1563 1564 1564 1565 1565 1564 1564 1564 1563 1563 1562 1561 1561 1561 1561 1561 1561 1561
1504 1506 1509 1511 1513 1514 1515 1516 1517 1518 1519 1521 1522 1523 1526 1528 1529 1529 1530 1532 1534 1535 1535 1536 1537 1538 1538 1539 1540 1541 1542 1542 1543 1544 1544 1545 1545 1546 1546 1547 1548 1549 1550 1551 1551 1552 1552 1552 1553 1553 1554 1554 1554 1555 1556 1556 1556 1556 1557 1557 1558 1559 1561 1562 1562 1562 1562 1563 1564 1564 1565 1565 1565 1565 1564 1564 1563 1562 1562 1562 1561 1561 1561 1561 1561
1503 1507 1510 1512 1513 1515 1516 1516 1516 1517 1519 1520 1522 1524 1526 1529 1530 1529 1530 1531 1533 1534 1534 1535 1536 1537 1537 1538 1539 1540 1541 1542 1543 1544 1544 1544 1545 1545 1546 1548 1548 1549 1550 1551 1551 1552 1552 1552 1553 1554 1554 1554 1554 1555 1556 1556 1556 1556 1556 1557 1558 1559 1561 1562 1562 1562 1562 1562 1563 1563 1564 1564 1564 1564 1564 1564 1563 1563 1562 1562 1561 1561 1561 1561 1561
1504 1508 1510 1512 1514 1515 1516 1517 1517 1517 1518 1521 1522 1524 1526 1528 1529 1529 1530 1531 1533 1533 1533 1534 1535 1536 1537 1538 1538 1540 1541 1541 1542 1543 1544 1544 1544 1545 1546 1548 1548 1549 1550 1551 1551 1552 1552 1553 1553 1554 1554 1554 1554 1555 1556 1556 1556 1556 1556 1557 1558 1559 1560 1560 1560 1560 1560 1561 1561 1562 1562 1563 1563 1563 1564 1564 1563 1563 1562 1562 1561 1561 1561 1561 1561
1505 1509 1509 1512 1514 1515 1516 1517 1517 1517 1519 1521 1522 1524 1525 1526 1527 1529 1529 1530 1532 1533 1533 1533 1535 1536 1537 1537 1538 1539 1540 1541 1542 1543 1543 1543 1544 1545 1546 1548 1548 1549 1549 1550 1551 1552 1553 1553 1553 1554 1554 1554 1555 1555 1556 1556 1556 1556 1556 1557 1557 1558 1559 1559 1559 1558 1558 1559 1560 1562 1562 1563 1563 1563 1563 1563 1563 1563 1562 1562 1561 1561 1561 1561 1562
1508 1510 1511 1513 1515 1515 1515 1516 1516 1517 1519 1520 1522 1524 1524 1525 1526 1527 1528 1529 1530 1532 1532 1533 1534 1535 1536 1537 1538 1539 1540 1541 1542 1542 1543 1543 1544 1545 1546 1547 1548 1548 1549 1550 1551 1552 1553 1553 1553 1554 1554 1554 1555 1556 1556 1556 1556 1555 1556 1557 1557 1558 1559 1559 1559 1558 1559 1560 1561 1562 1563 1563 1563 1563 1563 1563 1563 1563 1563 1562 1562 1561 1561 1561 1562
1508 1510 1512 1513 1514 1514 1514 1515 1515 1516 1517 1518 1521 1524 1524 1524 1525 1526 1527 1528 1529 1530 1531 1532 1533 1534 1535 1536 1537 1538 1539 1540 1541 1542 1543 1543 1544 1545 1546 1547 1547 1548 1549 1550 1551 1551 1552 1553 1553 1554 1554 1555 1555 1556 1556 1556 1556 1555 1556 1557 1558 1558 1559 1558 1559 1560 1560 1561 1561 1562 1562 1562 1562 1563 1563 1563 1563 1563 1563 1562 1562 1561 1561 1561 1561
1507 1508 1510 1511 1512 1513 1514 1515 1515 1515 1516 1518 1521 1522 1523 1524 1524 1525 1526 1527 1528 1530 1530 1531 1532 1534 1535 1536 1537 1538 1539 1540 1541 1541 1542 1543 1544 1545 1546 1546 1547 1548 1549 1550 1550 1551 1552 1552 1553 1553 1554 1555 1555 1556 1556 1556 1555 1555 1556 1557 1558 1558 1558 1559 1559 1560 1561 1561 1561 1561 1561 1561 1562 1562 1563 1563 1563 1563 1563 1562 1562 1561 1561 1561 1561
1508 1509 1509 1510 1511 1512 1513 1514 1514 1514 1515 1517 1520 1521 1522 1523 1524 1525 1526 1526 1528 1529 1530 1531 1532 1533 1535 1536 1537 1538 1539 1540 1540 1541 1542 1543 1544 1545 1545 1546 1547 1548 1548 1549 1550 1551 1551 1552 1553 1553 1554 1555 1555 1555 1556 1556 1555 1556 1557 1558 1558 1558 1558 1559 1559 1560 1560 1560 1560 1560 1560 1561 1562 1562 1563 1563 1564 1563 1563 1563 1562 1561 1561 1561 1561
1510 1509 1509 1509 1510 1511 1512 1512 1513 1514 1515 1516 1518 1520 1521 1522 1523 1525 1526 1527 1527 1528 1529 1530 1532 1533 1534 1535 1536 1537 1538 1539 1540 1540 1541 1542 1543 1544 1545 1546 1546 1547 1548 1549 1549 1550 1551 1552 1553 1553 1554 1554 1555 1555 1555 1555 1555 1556 1557 1558 1558 1559 1559 1559 1560 1560 1560 1560 1560 1560 1560 1561 1562 1563 1563 1563 1564 1564 1563 1563 1562 1562 1562 1562 1562
1511 1509 1508 1508 1508 1509 1510 1511 1512 1513 1514 1516 1517 1519 1520 1522 1523 1524 1525 1526 1527 1528 1529 1530 1531 1532 1534 1534 1535 1537 1537 1538 1539 1540 1541 1542 1543 1543 1544 1545 1546 1546 1547 1548 1549 1550 1551 1552 1552 1553 1553 1554 1554 1554 1555 1555 1555 1556 1557 1558 1558 1559 1559 1559 1560 1560 1560 1560 1560 1560 1561 1562 1563 1563 1563 1563 1564 1564 1564 1564 1563 1562 1562 1562 1562
1508 1508 1507 1507 1506 1507 1508 1509 1511 1512 1514 1515 1517 1518 1520 1522 1523 1524 1525 1526 1526 1527 1529 1529 1530 1531 1533 1534 1535 1536 1537 1538 1539 1540 1541 1541 1542 1543 1543 1544 1545 1546 1546 1547 1548 1549 1550 1551 1552 1552 1553 1553 1554 1554 1554 1555 1556 1556 1557 1557 1558 1559 1559 1560 1560 1560 1560 1560 1560 1561 1561 1562 1563 1563 1564 1564 1564 1564 1564 1564 1564 1563 1563 1562 1562
1503 1505 1505 1505 1505 1505 1507 1509 1510 1512 1513 1514 1517 1519 1520 1522 1523 1524 1525 1525 1526 1527 1528 1529 1529 1531 1532 1533 1534 1535 1536 1537 1538 1539 1540 1541 1542 1542 1543 1543 1544 1545 1546 1547 1548 1549 1550 1550 1551 1552 1552 1553 1553 1554 1554 1555 1555 1556 1557 1557 1558 1559 1559 1559 1559 1559 1560 1560 1560 1561 1562 1562 1563 1564 1564 1564 1565 1565 1565 1565 1564 1564 1563 1563 1563
1500 1501 1503 1504 1505 1506 1507 1509 1511 1512 1514 1515 1517 1519 1520 1522 1523 1524 1525 1526 1527 1527 1528 1528 1529 1530 1531 1532 1533 1534 1535 1536 1538 1539 1540 1540 1541 1542 1542 1543 1544 1545 1545 1546 1547 1548 1549 1550 1551 1551 1552 1552 1553 1554 1554 1554 1555 1556 1557 1557 1558 1558 1558 1558 1558 1559 1559 1560 1560 1561 1561 1562 1563 1564 1564 1565 1565 1565 1565 1565 1565 1565 1565 1564 1564
1497 1498 1500 1502 1504 1506 1507 1509 1511 1513 1515 1516 1517 1519 1520 1521 1523 1524 1525 1526 1527 1527 1528 1529 1529 1530 1531 1532 1533 1534 1536 1537 1538 1539 1539 1540 1541 1541 1542 1543 1543 1544 1545 1546 1547 1548 1549 1550 1551 1551 1552 1552 1553 1553 1554 1554 1554 1556 1556 1556 1557 1557 1557 1558 1558 1558 1559 1559 1560 1560 1561 1562 1563 1563 1564 1564 1565 1565 1565 1566 1566 1566 1565 1565 1565
1494 1496 1497 1499 1502 1505 1507 1509 1512 1513 1515 1516 1517 1519 1520 1521 1522 1523 1524 1525 1526 1527 1528 1529 1530 1530 1532 1533 1534 1535 1536 1537 1538 1538 1539 1540 1541 1541 1542 1543 1543 1544 1545 1546 1547 1548 1549 1550 1551 1551 1552 1552 1553 1552 1553 1554 1554 1555 1555 1555 1556 1556 1557 1557 1558 1558 1558 1559 1560 1560 1561 1561 1562 1563 1563 1564 1564 1565 1565 1566 1566 1566 1566 1565 1565
1493 1494 1495 1497 1500 1503 1506 1509 1511 1513 1514 1515 1516 1518 1519 1520 1521 1522 1523 1525 1526 1528 1529 1530 1531 1531 1533 1534 1535 1536 1536 1537 1538 1538 1539 1540 1541 1542 1542 1543 1543 1544 1545 1546 1547 1548 1549 1550 1551 1551 1552 1552 1552 1552 1552 1553 1554 1554 1555 1555 1556 1556 1557 1557 1557 1558 1559 1559 1560 1560 1561 1561 1562 1562 1563 1563 1564 1564 1565 1566 1566 1566 1566 1566 1566
1491 1493 1494 1496 1499 1503 1506 1508 1510 1512 1514 1515 1517 1518 1520 1521 1522 1523 1524 1526 1527 1529 1530 1531 1532 1533 1534 1535 1535 1535 1536 1537 1538 1539 1540 1541 1542 1542 1543 1543 1544 1545 1546 1547 1548 1548 1549 1550 1550 1551 1551 1552 1552 1552 1552 1552 1553 1553 1554 1555 1556 1556 1557 1557 1557 1558 1559 1559 1560 1561 1561 1561 1562 1562 1562 1563 1563 1564 1565 1566 1566 1566 1566 1566 1566
1491 1493 1495 1497 1500 1503 1506 1509 1511 1513 1515 1517 1518 1520 1521 1523 1524 1525 1526 1527 1529 1531 1532 1533 1533 1534 1534 1534 1535 1536 1537 1538 1539 1540 1541 1541 1542 1543 1543 1544 1545 1545 1546 1547 1547 1548 1548 1549 1549 1550 1550 1551 1551 1552 1552 1552 1552 1552 1553 1554 1556 1556 1557 1558 1558 1558 1559 1559 1560 1560 1561 1561 1561 1562 1562 1563 1563 1564 1565 1565 1566 1566 1566 1566 1566
1492 1494 1497 1499 1501 1504 1507 1509 1512 1514 1516 1518 1520 1522 1523 1524 1526 1527 1528 1529 1530 1531 1532 1533 1534 1534 1534 1534 1535 1536 1538 1539 1540 1541 1541 1542 1543 1543 1544 1544 1545 1546 1547 1547 1547 1548 1548 1548 1549 1549 1549 1550 1551 1551 1552 1552 1552 1552 1553 1554 1555 1556 1557 1558 1558 1558 1559 1559 1560 1560 1560 1560 1561 1562 1562 1563 1563 1564 1565 1564 1565 1566 1565 1566 1566
1493 1495 1498 1500 1503 1506 1509 1511 1513 1515 1517 1519 1521 1523 1524 1525 1526 1526 1527 1528 1529 1530 1531 1532 1533 1534 1534 1535 1535 1537 1538 1539 1540 1541 1542 1543 1543 1544 1544 1545 1546 1546 1547 1548 1548 1548 1548 1548 1549 1549 1549 1550 1550 1551 1551 1552 1552 1552 1553 1553 1554 1555 1556 1557 1557 1558 1558 1559 1559 1560 1559 1560 1561 1561 1562 1563 1563 1563 1564 1564 1565 1565 1565 1565 1566
1494 1497 1500 1503 1506 1508 1510 1512 1514 1516 1518 1520 1522 1523 1524 1524 1524 1524 1525 1526 1527 1529 1530 1531 1532 1533 1534 1535 1536 1537 1539 1540 1540 1541 1542 1543 1543 1544 1545 1545 1546 1546 1547 1547 1548 1548 1548 1548 1549 1549 1549 1549 1550 1551 1551 1551 1552 1552 1553 1553 1553 1554 1554 1555 1556 1557 1558 1559 1559 1559 1560 1559 1560 1561 1562 1563 1563 1564 1564 1564 1565 1565 1565 1566 1566
1495 1499 1502 1505 1507 1509 1512 1514 1515 1517 1519 1520 1522 1523 1524 1524 1524 1525 1525 1526 1527 1528 1530 1532 1532 1533 1534 1535 1537 1538 1539 1540 1541 1541 1542 1543 1544 1544 1545 1545 1546 1546 1547 1547 1548 1548 1548 1549 1549 1549 1549 1549 1550 1550 1551 1551 1552 1552 1553 1553 1553 1553 1554 1554 1555 1555 1557 1558 1558 1559 1560 1560 1560 1561 1561 1562 1563 1564 1564 1565 1565 1565 1565 1566 1566
1495 1499 1503 1505 1508 1510 1513 1514 1516 1517 1519 1520 1522 1523 1524 1524 1525 1526 1527 1528 1528 1529 1531 1532 1533 1533 1534 1536 1538 1539 1540 1541 1542 1542 1543 1543 1544 1545 1545 1546 1546 1547 1547 1548 1548 1548 1549 1549 1549 1549 1549 1549 1550 1550 1550 1551 1552 1552 1553 1553 1553 1554 1554 1554 1554 1555 1555 1556 1558 1559 1560 1560 1560 1560 1561 1562 1563 1564 1564 1565 1565 1566 1566 1566 1566
1496 1500 1502 1505 1508 1510 1513 1514 1516 1517 1519 1520 1522 1524 1525 1525 1526 1527 1528 1529 1530 1531 1532 1533 1533 1534 1535 1537 1538 1539 1540 1542 1542 1543 1543 1544 1545 1545 1546 1546 1546 1547 1547 1548 1548 1548 1549 1549 1549 1549 1549 1549 1550 1550 1550 1551 1551 1552 1552 1553 1553 1554 1554 1555 1555 1555 1555 1555 1557 1559 1560 1560 1560 1561 1562 1563 1563 1564 1565 1565 1565 1565 1566 1566 1566
1495 1499 1502 1505 1507 1510 1512 1514 1516 1518 1519 1521 1522 1524 1525 1526 1527 1528 1528 1530 1530 1531 1532 1533 1534 1535 1536 1537 1539 1540 1541 1542 1542 1543 1543 1544 1545 1545 1546 1547 1547 1547 1547 1547 1548 1549 1549 1549 1550 1550 1550 1550 1550 1550 1551 1551 1552 1552 1553 1553 1553 1554 1554 1554 1555 1556 1556 1556 1557 1559 1560 1560 1561 1562 1563 1564 1564 1564 1565 1565 1565 1565 1566 1566 1566
1495 1499 1502 1505 1507 1510 1512 1514 1516 1518 1519 1521 1522 1524 1526 1527 1527 1528 1529 1530 1530 1531 1532 1534 1535 1536 1537 1538 1539 1540 1541 1542 1542 1543 1544 1544 1545 1546 1546 1547 1547 1547 1547 1547 1548 1549 1549 1550 1550 1551 1551 1551 1551 1551 1552 1552 1552 1552 1553 1553 1554 1554 1555 1555 1556 1556 1557 1557 1557 1559 1561 1561 1562 1562 1563 1564 1565 1565 1565 1565 1566 1566 1566 1567 1567